Hourly Data Report for October 27, 2016

All times are specified in Local Standard Time (LST). Add 1 hour to adjust for Daylight Saving Time where and when it is observed.

POND INLET A
NUNAVUT

72°41'22.000" N
77°58'08.000" W
61.60 m
2403206
71095
YIO

Download Data

Hourly Data (October 2016)
Hourly Data Report for October 27, 2016
Temp Definition
°C
Dew Point Temp Definition
°C
Rel Hum Definition
%
Wind Dir Definition
10's deg

Wind Spd Definition
km/h
Visibility Definition
km
Stn Press Definition
kPa
Hmdx Definition


Wind Chill Definition


Weather Definition


TIME
00:00 Legend Double Dagger -17.4 -20.9 75 15 15 16.1 100.19   -26 LegendNANA
01:00 Legend Double Dagger -18.2 -21.4 76 14 8 16.1 100.21   -24 LegendNANA
02:00 Legend Double Dagger -18.5 -21.3 79 12 4 16.1 100.22   -22 LegendNANA
03:00 Legend Double Dagger -17.1 -20.4 76 7 4 16.1 100.23   -20 LegendNANA
04:00 Legend Double Dagger -16.2 -19.7 75 6 5 16.1 100.23   -20 LegendNANA
05:00 Legend Double Dagger -15.4 -18.4 78 5 4 16.1 100.21   -18 LegendNANA
06:00 Legend Double Dagger -15.1 -17.7 81 LegendMM 4 16.1 100.21   -18 LegendNANA
07:00 Legend Double Dagger -14.2 -17.6 76 LegendMM 8 16.1 100.22   -19 LegendNANA
08:00 Legend Double Dagger -9.5 -14.0 70 5 28 16.1 100.21   -19 LegendNANA
09:00 Legend Double Dagger -9.7 -13.7 73 5 30 16.1 100.25   -19 LegendNANA
10:00 Legend Double Dagger -10.0 -13.8 74 9 26 16.1 100.25   -19 LegendNANA
11:00 Legend Double Dagger -9.8 -13.1 77 7 28 16.1 100.25   -19 LegendNANA
12:00 Legend Double Dagger -9.1 -13.1 73 7 24 16.1 100.25   -17 LegendNANA
13:00 Legend Double Dagger -9.1 -13.1 73 6 32 16.1 100.24   -19 LegendNANA
14:00 Legend Double Dagger -8.9 -12.4 76 6 28 16.1 100.28   -18 Snow
15:00 Legend Double Dagger -8.5 -12.1 75 6 35 16.1 100.23   -18 Snow
16:00 Legend Double Dagger -8.1 -12.6 70 6 18 16.1 100.31   -15 Snow
17:00 Legend Double Dagger -8.3 -12.8 70 7 22 16.1 100.30   -16 LegendNANA
18:00 Legend Double Dagger -7.7 -12.6 68 6 22 16.1 100.29   -15 LegendNANA
19:00 Legend Double Dagger -7.4 -12.4 68 6 17 16.1 100.28   -14 LegendNANA
20:00 Legend Double Dagger -7.0 -11.8 69 6 18 16.1 100.28   -14 Snow
21:00 Legend Double Dagger -6.7 -11.1 71 7 17 16.1 100.23   -13 Snow
22:00 Legend Double Dagger -6.2 -9.8 76 6 30 16.1 100.21   -15 Snow
23:00 Legend Double Dagger -6.0 -9.7 75 8 26 16.1 100.18   -14 LegendNANA

Notes on Data Quality.

Legend

  • E = Estimated
  • M = Missing
  • NA = Not Available
  • ‡ = Partner data that is not subject to review by the National Climate Archives
Date modified: